"Pseudo-MPEC" for P12nuEk

Created 2026 Jun 17 18:35:05 UT using Find_Orb

Click here for an explanation of pseudo-MPECs

 
 Astrometry: 
     P12nuEk*0C2026 06 16.48856319 17 03.956-38 57 45.42   ~6GDK 20.33wXNEOCPF51
     P12nuEk 0C2026 06 16.50183919 17 03.303-38 56 27.36   ~6GDK 20.86wXNEOCPF51
     P12nuEk 0C2026 06 16.50837119 17 02.985-38 55 48.60   ~6GDZ 20.58GVNEOCPF51

Station data:
(F51) Pan-STARRS 1, Haleakala  (N20.707234 W156.255910)  US/Hawaii.
   Observers J. Herman, T. Lowe, P. Minguez, A. Schultz, I. Smith. Measurers
   K. Chambers, T. de Boer, J. Fairlamb, H. Gao, M. Huber, C.-C. Lin, E.
   Magnier, Y. Ramanjooloo, R. Wainscoat, R. Weryk. 1.8-m Ritchey-Chrétien +
   CCD.

Orbital elements:  P12nuEk
   Perihelion 2026 May 16.020017 +/- 43.4 TT =  0:28:49.4 (JD 2461176.520017)
Epoch 2026 Jun 16.0 TT = JDT 2461207.5   Earth MOID: 0.1334      AutoNEOCP
M  13.462036474 +/- 28              (J2000 ecliptic)
n   0.434539821 +/- 0.338           Peri.  319.843652 +/- 70
a   1.726300228 +/- 0.895           Node   277.112979 +/- 40
e   0.35856068 +/- 0.263            Incl.   12.141170 +/- 11
P   2.268/828.447d         H 23.38  G  0.15   U 12.0  SR
q 1.107316843 +/- 0.289    Q 2.345283614 +/- 31.4
From 3 observations 2026 June 16 (28.5 min); mean residual 0".06
Residuals in arcseconds: 
260616 F51  .01+  .04+    260616 F51  .02-  .11-    260616 F51  .01+  .08+    

Ephemerides (geocentric):
Date (UTC) HH   RA             Dec           delta  r     elong  mag " sig PA
---- --------  ------------   ------------  ------ ------ -----  --- --------
2026 06 17 19  19 16 36.923   -36 49 31.71  .14732 1.1520 155.9 20.6 990' 119
2026 06 17 20  19 16 35.998   -36 45 29.10  .14736 1.1521 156.0 20.6 995' 120
2026 06 17 21  19 16 35.070   -36 41 26.61  .14741 1.1522 156.0 20.6  17d 121
2026 06 17 22  19 16 34.137   -36 37 24.24  .14746 1.1523 156.1 20.6  17d 127
2026 06 17 23  19 16 33.200   -36 33 22.00  .14751 1.1524 156.2 20.6  20d 134
2026 06 18 00  19 16 32.259   -36 29 19.87  .14756 1.1526 156.2 20.6  24d 129
2026 06 18 01  19 16 31.314   -36 25 17.87  .14761 1.1527 156.3 20.6  26d 129
2026 06 18 02  19 16 30.365   -36 21 16.00  .14767 1.1528 156.4 20.6  28d 126
2026 06 18 03  19 16 29.411   -36 17 14.25  .14772 1.1529 156.4 20.6  28d 124
2026 06 18 04  19 16 28.454   -36 13 12.63  .14777 1.1530 156.5 20.6  29d 123
2026 06 18 05  19 16 27.492   -36 09 11.14  .14782 1.1531 156.6 20.6  29d 122
2026 06 18 06  19 16 26.527   -36 05 09.77  .14787 1.1532 156.6 20.6  29d 121
2026 06 18 07  19 16 25.558   -36 01 08.54  .14792 1.1533 156.7 20.6  29d 121
2026 06 18 08  19 16 24.584   -35 57 07.43  .14798 1.1534 156.8 20.6  29d 121
2026 06 18 09  19 16 23.607   -35 53 06.46  .14803 1.1535 156.8 20.6  29d 121
2026 06 18 10  19 16 22.626   -35 49 05.63  .14808 1.1537 156.9 20.6  29d 122
2026 06 18 11  19 16 21.641   -35 45 04.92  .14814 1.1538 157.0 20.6  30d 124
2026 06 18 12  19 16 20.653   -35 41 04.35  .14819 1.1539 157.0 20.6  32d 124
2026 06 18 13  19 16 19.660   -35 37 03.92  .14825 1.1540 157.1 20.6  33d 122
2026 06 18 14  19 16 18.664   -35 33 03.63  .14830 1.1541 157.1 20.6  33d 122
2026 06 18 15  19 16 17.664   -35 29 03.47  .14835 1.1542 157.2 20.5  33d 121
2026 06 18 16  19 16 16.660   -35 25 03.45  .14841 1.1543 157.3 20.5  33d 121
2026 06 18 17  19 16 15.653   -35 21 03.57  .14846 1.1544 157.3 20.5  33d 120
2026 06 18 18  19 16 14.642   -35 17 03.83  .14852 1.1546 157.4 20.5  33d 120
2026 06 18 19  19 16 13.627   -35 13 04.24  .14858 1.1547 157.5 20.5  34d 121
2026 06 18 20  19 16 12.609   -35 09 04.79  .14863 1.1548 157.5 20.5  34d 121
2026 06 18 21  19 16 11.587   -35 05 05.48  .14869 1.1549 157.6 20.5  34d 122
2026 06 18 22  19 16 10.562   -35 01 06.32  .14875 1.1550 157.7 20.5  34d 122
2026 06 18 23  19 16 09.533   -34 57 07.30  .14880 1.1551 157.7 20.5  35d 123
2026 06 19 00  19 16 08.501   -34 53 08.43  .14886 1.1552 157.8 20.5  36d 124
2026 06 19 01  19 16 07.465   -34 49 09.71  .14892 1.1553 157.9 20.5  38d 123
2026 06 19 02  19 16 06.426   -34 45 11.14  .14898 1.1555 157.9 20.5  39d 123
2026 06 19 03  19 16 05.383   -34 41 12.71  .14904 1.1556 158.0 20.5  39d 122
2026 06 19 04  19 16 04.337   -34 37 14.44  .14909 1.1557 158.0 20.5  40d 122
2026 06 19 05  19 16 03.288   -34 33 16.32  .14915 1.1558 158.1 20.5  40d 122
2026 06 19 06  19 16 02.235   -34 29 18.35  .14921 1.1559 158.2 20.5  40d 122
2026 06 19 07  19 16 01.179   -34 25 20.54  .14927 1.1560 158.2 20.5  41d 122
2026 06 19 08  19 16 00.120   -34 21 22.88  .14933 1.1561 158.3 20.5  41d 122
2026 06 19 09  19 15 59.057   -34 17 25.38  .14939 1.1562 158.4 20.5  42d 121
2026 06 19 10  19 15 57.991   -34 13 28.03  .14945 1.1564 158.4 20.5  42d 121
2026 06 19 11  19 15 56.922   -34 09 30.84  .14951 1.1565 158.5 20.5  42d 120
2026 06 19 12  19 15 55.850   -34 05 33.81  .14957 1.1566 158.6 20.5  42d 120
2026 06 19 13  19 15 54.774   -34 01 36.94  .14964 1.1567 158.6 20.5  43d 120
2026 06 19 14  19 15 53.696   -33 57 40.23  .14970 1.1568 158.7 20.5  43d 120
2026 06 19 15  19 15 52.614   -33 53 43.68  .14976 1.1569 158.7 20.5  43d 119
2026 06 19 16  19 15 51.529   -33 49 47.29  .14982 1.1570 158.8 20.5  43d 119
2026 06 19 17  19 15 50.441   -33 45 51.07  .14989 1.1572 158.9 20.5  43d 119
2026 06 19 18  19 15 49.350   -33 41 55.01  .14995 1.1573 158.9 20.5  43d 119